Location: Bremen
(53.0796°N, 8.8241°E)
Time: 10:05:22
(UTC+01:00)

ISS - Pass Details

Date: 04 January 2018
Orbit: 401 x 406 km, 51.6° (Epoch: 17 January)

Event Time Altitude Azimuth Distance (km) Brightness Sun altitude
Exits shadow 05:23:22 20° 101° (E) 1,022 -1.1 -27.8°
Drops below altitude 10° 05:24:37 10° 89° (E) 1,468 0.0 -27.6°
Sets 05:26:48 0° 81° (E) 2,332 1.3 -27.3°
